weather.gov     
National Weather Service

Regional Weather Roundup
NWS Homepage
This page is being discontinued on March 12, 2014.
The same data is available at this site. Please update your bookmarks.
Thank you, and we apologize for the inconvenience.
Please send an email to SR-SRH.Webmaster@noaa.gov with any concerns.


Current Version
Previous Version:    01  02  03  04  05  06  07  08  09  10  11  12  13  14  15  16  17  18  19  20  21  22  23  24  25  26  
[Printable]
276
ASUS42 KCAE 250110
RWRCAE
REGIONAL WEATHER ROUNDUP
NATIONAL WEATHER SERVICE COLUMBIA SC
900 PM EDT THU APR 24 2014

NOTE: "FAIR" INDICATES FEW OR NO CLOUDS BELOW 12,000 FEET WITH NO
SIGNIFICANT WEATHER AND/OR OBSTRUCTIONS TO VISIBILITY.

NOT ALL STATIONS ARE QUALITY CONTROLLED BY THE NATIONAL
WEATHER SERVICE. USE DATA WITH CAUTION...ESPECIALLY
DEWPOINT OBSERVATIONS.

SCZ001>056-GAZ040-063>065-077-250200-
...UPSTATE SOUTH CAROLINA...

CITY           SKY/WX    TMP DP  RH WIND       PRES   REMARKS
ANDERSON       CLEAR     65  47  52 NE3       29.95S
LIBERTY        FAIR      61  11  14 MISG      29.96S
SPARTANBURG    FAIR      64  46  52 CALM      29.96S
CLEMSON        CLEAR     68  43  40 CALM      29.96S
GREENVILLE     CLEAR     70  39  32 CALM      29.97S
GREENWOOD      CLEAR     65  48  54 CALM      29.96S
GREER          CLEAR     64  44  48 SE3       29.95S
ROCK HILL      CLEAR     59  46  62 CALM      29.98S
CHESTER        FAIR      63  48  59 CALM      29.98S


...CENTRAL SOUTH CAROLINA...

CITY           SKY/WX    TMP DP  RH WIND       PRES   REMARKS
COLUMBIA APT   PTCLDY    70  53  54 E12       29.96R
COLUMBIA OWENS CLEAR     71  52  50 VRB5      29.98R
DARLINGTON     CLEAR     66  48  52 SE9       30.02R
FLORENCE       CLEAR     65  48  54 SE7       30.01R
MCENTIRE ANGB  PTCLDY    67  54  61 SE9       29.98S
ORANGEBURG     CLEAR     69  56  62 SE7       29.98S
SUMTER SHAW    CLEAR     68  53  59 SE8       29.97R
NEWBERRY       FAIR      64  48  55 E3        29.99S
AIKEN          CLOUDY    72  57  60 CALM      29.98S
BARNWELL       FAIR      70  59  68 S8        29.96F
MANNING        FAIR      64  57  77 E5        30.00S
CAMDEN         FAIR      66  52  59 SE8       29.99S
LANCASTER      FAIR      57  52  82 CALM      29.98S
WINNSBORO      FAIR      66  48  52 E6        29.97S


...EASTERN AND COASTAL SOUTH CAROLINA...

CITY           SKY/WX    TMP DP  RH WIND       PRES   REMARKS
MYRTLE BEACH   CLEAR     61  55  82 CALM      30.04S
N MYRTLE BCH   MOCLDY    60  54  80 E3        30.04R
CONWAY         FAIR      61  54  77 CALM      30.04S
MARION         FAIR      63  46  55 SE7       30.03R
HARTSVILLE     FAIR      66  50  55 SE6       30.01R
FLORENCE       CLEAR     65  48  54 SE7       30.01R
DARLINGTON     CLEAR     66  48  52 SE9       30.02R
CHARLESTON APT PTCLDY    65  57  75 E9        30.00S
MOUNT PLEASANT LGT RAIN  64  59  82 CALM      30.01S
WALTERBORO     CLEAR     63  63 100 E5        30.00R
BEAUFORT       CLEAR     67  61  81 CALM      29.98F


...EASTERN GEORGIA...

CITY           SKY/WX    TMP DP  RH WIND       PRES   REMARKS
AUGUSTA BUSH F LGT RAIN  70  57  63 SE7       29.93S
AUGUSTA DANIEL MOCLDY    74  55  51 SE9       29.95R
THOMSON        CLEAR     65  58  78 CALM      29.98R
WASHINGTON     FAIR      64  55  72 E5        29.94R
CLAXTON        FAIR      70  64  83 E6        29.96S
SYLVANIA       CLEAR     70  61  74 SE5       29.97S
STATESBORO     CLEAR     69  57  65 SE5       29.96S
SAVANNAH       PTCLDY    67  60  78 E8        29.98S


...SOUTHERN NORTH CAROLINA...

CITY           SKY/WX    TMP DP  RH WIND       PRES   REMARKS
CHARLOTTE      PTCLDY    64  43  46 SE7       29.98S
MONROE         CLEAR     60  44  55 CALM      29.98S
WADESBORO      CLEAR     59  49  68 CALM      30.00R
ROCKINGHAM       N/A     61  47  58 SE3       30.00S
RUTHERFORDTON  CLEAR     64  40  41 S8        29.97F
ASHEVILLE      CLEAR     60  37  42 S6        29.99S

$$




U.S. Dept. of Commerce
NOAA National Weather Service
1325 East West Highway
Silver Spring, MD 20910
E-mail: w-nws.webmaster@noaa.gov
Page last modified: May 16, 2007
NATIONAL WEATHER SERVICE: for Safety, for Work, for Fun - FOR LIFE